Location: Chippewa Lake
(41.0698°N, 81.9010°W)
Time: 00:45:36
(UTC+00:00)

Cosmos 1869 Rocket - Pass Details

Date: 09 May 2021
Orbit: 605 x 633 km, 82.5° (Epoch: 24 June)

Event Time Altitude Azimuth Distance (km) Brightness Sun altitude
Rises 03:47:09 0° 352° (N) 2,870 8.1 -27.4°
Reaches altitude 10° 03:49:22 10° 353° (N) 1,962 7.0 -27.5°
Enters shadow 03:52:33 49° 357° (N) 790 4.3 -27.8°
